EN

Hourly Weather Ozadivka

Today, 28 February, Sunday

Time Temperature Precipitation Wind Pressure Humidity
00:00 -1°C° 0 mm 5 mps 742 mmHg 92%
01:00 -1°C° 0 mm 5 mps 742 mmHg 93%
02:00 -2°C° 0 mm 5 mps 743 mmHg 93%
03:00 -2°C° 0 mm 5 mps 743 mmHg 93%
04:00 -2°C° 0 mm 5 mps 743 mmHg 93%
05:00 -2°C° 0 mm 5 mps 743 mmHg 94%
06:00 -2°C° 0.1 mm 5 mps 743 mmHg 92%
07:00 -2°C° 0.1 mm 5 mps 743 mmHg 91%
08:00 -4°C° 0.1 mm 5 mps 744 mmHg 89%
09:00 -2°C° 0.1 mm 5 mps 744 mmHg 86%
10:00 -3°C° 0.1 mm 6 mps 744 mmHg 83%
11:00 -2°C° 0.1 mm 6 mps 744 mmHg 81%
12:00 -2°C° 0 mm 6 mps 743 mmHg 77%
13:00 -1°C° 0 mm 6 mps 743 mmHg 73%
14:00 +1°C° 0 mm 6 mps 743 mmHg 69%
15:00 +1°C° 0 mm 6 mps 743 mmHg 73%
16:00 -1°C° 0 mm 6 mps 742 mmHg 78%
17:00 0°C° 0 mm 5 mps 742 mmHg 82%
18:00 -1°C° 0.4 mm 6 mps 742 mmHg 87%
19:00 -2°C° 0.4 mm 6 mps 741 mmHg 91%
20:00 -2°C° 0.4 mm 7 mps 741 mmHg 96%
21:00 -2°C° 0.7 mm 6 mps 741 mmHg 96%
22:00 -1°C° 0.7 mm 5 mps 741 mmHg 97%
23:00 -1°C° 0.7 mm 4 mps 741 mmHg 97%

Tomorrow, 1 March, Monday

Time Temperature Precipitation Wind Pressure Humidity
00:00 -1°C° 0.2 mm 4 mps 741 mmHg 97%
01:00 -1°C° 0.2 mm 4 mps 742 mmHg 97%
02:00 -1°C° 0.2 mm 4 mps 742 mmHg 97%
03:00 -1°C° 0.1 mm 4 mps 743 mmHg 97%
04:00 -1°C° 0.1 mm 4 mps 743 mmHg 97%
05:00 -1°C° 0.1 mm 5 mps 743 mmHg 96%
06:00 -1°C° 0.1 mm 4 mps 744 mmHg 95%
07:00 -1°C° 0.1 mm 4 mps 745 mmHg 95%
08:00 -1°C° 0.1 mm 4 mps 745 mmHg 94%
09:00 -1°C° 0.1 mm 4 mps 746 mmHg 92%
10:00 -1°C° 0.1 mm 4 mps 746 mmHg 90%
11:00 +1°C° 0.1 mm 3 mps 746 mmHg 88%
12:00 +1°C° 0 mm 3 mps 747 mmHg 85%
13:00 +1°C° 0 mm 3 mps 747 mmHg 81%
14:00 +2°C° 0 mm 3 mps 747 mmHg 78%
15:00 +2°C° 0 mm 3 mps 747 mmHg 78%
16:00 +3°C° 0 mm 2 mps 747 mmHg 79%
17:00 +3°C° 0 mm 2 mps 747 mmHg 80%
18:00 +2°C° 0 mm 2 mps 748 mmHg 81%
19:00 +2°C° 0 mm 2 mps 748 mmHg 83%
20:00 +2°C° 0 mm 2 mps 748 mmHg 84%
21:00 +2°C° 0 mm 2 mps 748 mmHg 84%
22:00 +2°C° 0 mm 2 mps 748 mmHg 84%
23:00 +2°C° 0 mm 2 mps 748 mmHg 84%

Day after tomorrow, 2 March, Tuesday

Time Temperature Precipitation Wind Pressure Humidity
00:00 0°C° 0 mm 3 mps 748 mmHg 86%
01:00 0°C° 0 mm 3 mps 748 mmHg 88%
02:00 -2°C° 0 mm 4 mps 748 mmHg 91%
03:00 -2°C° 0 mm 4 mps 747 mmHg 91%
04:00 -2°C° 0 mm 5 mps 746 mmHg 92%
05:00 -1°C° 0 mm 5 mps 746 mmHg 93%
06:00 -1°C° 0 mm 5 mps 746 mmHg 92%
07:00 -1°C° 0 mm 6 mps 746 mmHg 91%
08:00 -1°C° 0 mm 6 mps 745 mmHg 91%
09:00 +1°C° 0 mm 6 mps 745 mmHg 86%
10:00 +2°C° 0 mm 7 mps 745 mmHg 80%
11:00 +3°C° 0 mm 7 mps 745 mmHg 75%
12:00 +3°C° 0 mm 7 mps 745 mmHg 75%
13:00 +3°C° 0 mm 7 mps 745 mmHg 75%
14:00 +3°C° 0 mm 7 mps 745 mmHg 75%
15:00 +3°C° 0 mm 6 mps 745 mmHg 77%
16:00 +2°C° 0 mm 6 mps 744 mmHg 78%
17:00 +2°C° 0 mm 5 mps 744 mmHg 80%
18:00 +1°C° 0 mm 5 mps 745 mmHg 83%
19:00 +1°C° 0 mm 5 mps 745 mmHg 86%
20:00 0°C° 0 mm 5 mps 745 mmHg 89%
21:00 0°C° 0 mm 5 mps 745 mmHg 89%
22:00 0°C° 0 mm 4 mps 746 mmHg 89%
23:00 -1°C° 0 mm 4 mps 746 mmHg 90%

3 March, Wednesday

Time Temperature Precipitation Wind Pressure Humidity
00:00 -1°C° 0 mm 4 mps 746 mmHg 90%
01:00 -1°C° 0 mm 4 mps 746 mmHg 90%
02:00 -1°C° 0 mm 4 mps 746 mmHg 90%
03:00 -1°C° 0 mm 4 mps 745 mmHg 90%
04:00 -1°C° 0 mm 4 mps 745 mmHg 91%
05:00 -1°C° 0 mm 4 mps 745 mmHg 91%
06:00 -1°C° 0 mm 4 mps 745 mmHg 91%
07:00 -1°C° 0 mm 4 mps 745 mmHg 90%
08:00 -1°C° 0 mm 4 mps 745 mmHg 90%
09:00 +1°C° 0 mm 4 mps 745 mmHg 85%
10:00 +3°C° 0 mm 4 mps 746 mmHg 80%
11:00 +4°C° 0 mm 4 mps 746 mmHg 75%
12:00 +5°C° 0 mm 4 mps 746 mmHg 72%
13:00 +6°C° 0 mm 4 mps 745 mmHg 68%
14:00 +7°C° 0 mm 4 mps 745 mmHg 64%
15:00 +8°C° 0 mm 3 mps 745 mmHg 66%
16:00 +7°C° 0 mm 3 mps 745 mmHg 67%
17:00 +7°C° 0 mm 3 mps 745 mmHg 69%
18:00 +6°C° 0 mm 2 mps 745 mmHg 74%
19:00 +5°C° 0 mm 2 mps 745 mmHg 79%
20:00 +5°C° 0 mm 1 mps 745 mmHg 84%
21:00 +4°C° 0 mm 1 mps 745 mmHg 85%
22:00 +4°C° 0 mm 1 mps 745 mmHg 87%
23:00 +2°C° 0 mm 0 mps 745 mmHg 88%

4 March, Thursday

Time Temperature Precipitation Wind Pressure Humidity
00:00 +3°C° 0 mm 1 mps 744 mmHg 89%
01:00 +3°C° 0 mm 1 mps 744 mmHg 89%
02:00 +2°C° 0 mm 1 mps 744 mmHg 90%
03:00 +1°C° 0 mm 2 mps 743 mmHg 90%
04:00 +1°C° 0 mm 2 mps 743 mmHg 91%
05:00 +1°C° 0 mm 2 mps 743 mmHg 92%
06:00 0°C° 0 mm 3 mps 742 mmHg 91%
07:00 0°C° 0 mm 3 mps 742 mmHg 90%
08:00 +1°C° 0 mm 3 mps 742 mmHg 90%
09:00 +3°C° 0 mm 4 mps 741 mmHg 83%
10:00 +4°C° 0 mm 4 mps 741 mmHg 76%
11:00 +6°C° 0 mm 5 mps 741 mmHg 69%
12:00 +7°C° 0 mm 5 mps 740 mmHg 64%
13:00 +8°C° 0 mm 5 mps 739 mmHg 59%
14:00 +9°C° 0 mm 5 mps 739 mmHg 54%
15:00 +9°C° 0 mm 5 mps 738 mmHg 56%
16:00 +8°C° 0 mm 4 mps 738 mmHg 57%
17:00 +8°C° 0 mm 4 mps 737 mmHg 58%
18:00 +7°C° 0 mm 4 mps 737 mmHg 64%
19:00 +6°C° 0 mm 4 mps 737 mmHg 69%
20:00 +4°C° 0 mm 4 mps 736 mmHg 74%
21:00 +4°C° 0 mm 4 mps 736 mmHg 75%
22:00 +4°C° 0 mm 3 mps 736 mmHg 76%
23:00 +3°C° 0 mm 3 mps 736 mmHg 78%

5 March, Friday

Time Temperature Precipitation Wind Pressure Humidity
00:00 +3°C° 0 mm 3 mps 735 mmHg 80%
01:00 +2°C° 0 mm 3 mps 735 mmHg 83%
02:00 +2°C° 0 mm 3 mps 734 mmHg 86%
03:00 +2°C° 0 mm 3 mps 734 mmHg 86%
04:00 +1°C° 0 mm 4 mps 734 mmHg 86%
05:00 0°C° 0 mm 4 mps 733 mmHg 86%
06:00 +1°C° 0 mm 4 mps 733 mmHg 85%
07:00 +1°C° 0 mm 4 mps 733 mmHg 84%
08:00 +1°C° 0 mm 5 mps 732 mmHg 83%
09:00 +3°C° 0 mm 5 mps 733 mmHg 77%
10:00 +4°C° 0 mm 6 mps 733 mmHg 71%
11:00 +6°C° 0 mm 7 mps 733 mmHg 66%
12:00 +6°C° 0 mm 7 mps 732 mmHg 66%
13:00 +7°C° 0 mm 6 mps 732 mmHg 66%
14:00 +7°C° 0 mm 6 mps 732 mmHg 67%
15:00 +5°C° 0.1 mm 6 mps 732 mmHg 71%
16:00 +5°C° 0.1 mm 6 mps 732 mmHg 76%
17:00 +4°C° 0.1 mm 6 mps 732 mmHg 80%
18:00 +3°C° 0.1 mm 5 mps 732 mmHg 80%
19:00 +3°C° 0.1 mm 5 mps 732 mmHg 79%
20:00 +2°C° 0.1 mm 5 mps 732 mmHg 78%
21:00 +1°C° 0 mm 5 mps 732 mmHg 81%
22:00 0°C° 0 mm 5 mps 733 mmHg 83%
23:00 0°C° 0 mm 5 mps 733 mmHg 85%
Show more

We Need Your Consent

Meteoprog and our Service Providers may store and access personal data such as cookies, device identifiers or other similar technologies on your device and process such data to personalise content and ads, as well as provide social media features and to analyse the traffic.

  • Store and/or access information on your device

    Cookies, device identifiers or other information can be stored or accessed on your device for the purposes indicated above.

  • Personalised ads and content, ad and content measurement, audience insights, and products development

    Ads and content can be personalised based on a profile. More data can be added to better personalise ads and content. Ad and content performance can be measured. Insights about the audience who saw the ads and content can be derived. Such data can be used to develop or improve user’s experience, systems and software.

By clicking ‘I Agree’ you will allow the use of indicated cookies, device identifiers, web beacons or other similar technologies. Your settings can be changed in the browser on your device.

For certain purposes, legitimate interests may be relied on, rather than consent. You can read more about this in our Privacy and Cookie Policy.